Погода в Калайкасах

Россия / Чувашская Республика     56°03′28″N   46°52′53″E
темп.,
°C
ветер,
м/с
пор.,
м/с
влажн.,
%
обл.,
%
осадки,
мм/ч
давл.,
гПа
погр.,
м
8 августа, пн
пн800:00+19ююв126415 0.0 102011
03:00+18ююв22667 0.0 102011
06:00+20сз116956 0.0 102128
09:00+25юв11545 0.0 1020305
12:00+28ююв22405 0.0 10201839
15:00+29ю323617 0.0 10202405
18:00+25ююз345923 0.0 101967
21:00+20ююв126548 0.0 102011
9 августа, вт
вт900:00+19ю226198 0.0 102014
03:00+18юз11665 0.0 102011
06:00+20ююв127119 0.0 102047
09:00+25ююз12575 0.0 1020461
12:00+27юв1148100 0.0 10191017
15:00+28юв214581 0.0 10181467
18:00+26ююв226012 0.0 101733
21:00+17сз5109529 1.3 1019229
10 августа, ср
ср1000:00+16св369252 0.9 1018108
03:00+16з1188100 1.3 101811
06:00+17с2488100 0.1 1018119
09:00+20зсз3476100 0.3 1019475
12:00+19ссз2281100 0.1 1019254
15:00+18с3591100 0.8 1018272
18:00+18с5794100 1.4 1018378
21:00+15ссз379986 1.5 1019237
11 августа, чт
чт1100:00+14с3697100 0.0 1020154
03:00+12ссз359690 0.0 1021101
06:00+13ссз269031 0.0 1022184
09:00+17с35665 0.0 1023651
12:00+21ссз44542 0.0 10231471
15:00+22ссз45491 0.0 10231571
18:00+21зюз11600 0.0 102212
21:00+15з12710 0.0 102311
12 августа, пт
пт1200:00+14зюз227860 0.0 102419
03:00+13з357928 0.0 102463
06:00+14з36806 0.0 1024151
09:00+20з4660100 0.0 1024541
12:00+23з574781 0.0 10231394
15:00+24з574370 0.0 10221522
18:00+21з36625 0.0 1022160
21:00+17з33675 0.0 102242